Regional Weather Roundup
Issued by NWS

Home | Current Version | Previous Version | Graphics & Text | Print | Product List | Glossary On
Versions: 1 2 3 4 5 6 7 8 9 10 11 12 13 14 15 16 17 18 19 20 21 22 23 24 25 26 27 28 29 30 31 32 33 34 35 36 37 38 39 40 41 42 43 44 45 46 47 48 49 50
000
ASUS43 KMPX 240810
RWRMN
WEATHER ROUNDUP FOR MINNESOTA
NATIONAL WEATHER SERVICE TWIN CITIES/CHANHASSEN MN
300 AM CDT SUN JUL 24 2016


NOTE: "FAIR" INDICATES FEW OR NO CLOUDS BELOW 12,000 FEET WITH NO
SIGNIFICANT WEATHER AND/OR OBSTRUCTIONS TO VISIBILITY. N/A MEANS
CURRENT SKY AND/OR WEATHER CONDITIONS ARE NOT AVAILABLE.

MNZ060>063-068>070-240900-
   Twin Cities Metro

CITY           SKY/WX    TMP DP  RH WIND       PRES   REMARKS
TWIN CITIES    CLOUDY    76  73  91 CALM      29.76S THUNDER
ST PAUL        CLOUDY    75  72  90 SE5       29.76S
CRYSTAL        CLOUDY    75  71  87 S13       29.69F
BLAINE         CLOUDY    75  75 100 S10       29.73F
LAKEVILLE      CLOUDY    73  73 100 S3        29.77F
EDEN PRAIRIE   TSTM      76  74  93 NW5       29.75F
LAKEVILLE      CLOUDY    73  73 100 S3        29.77F
SOUTH ST PAUL  CLOUDY    75  73  93 S6        29.76F
LAKE ELMO      CLOUDY    73  72  94 S8        29.77F
$$
MNZ001>005-007-008-013>017-022>024-027-028-240900-
   Northwest Minnesota

CITY           SKY/WX    TMP DP  RH WIND       PRES   REMARKS
BEMIDJI        CLEAR     68  66  94 W7        29.75S
HALLOCK        CLEAR     63  61  94 W7        29.73R
ROSEAU         CLEAR     68  63  83 W8        29.70R
WARROAD        CLEAR     66  63  88 SW8       29.70R
THIEF RVR FALL CLEAR     66  63  90 W9        29.76R
CROOKSTON      CLEAR     64  63  94 W9        29.77R
FOSSTON        CLEAR     64  64 100 W7        29.77R
DETROIT LAKES  CLEAR     70  68  94 W10G16    29.81R
MOORHEAD       CLEAR     66  63  88 W9        29.81R
PARK RAPIDS    CLEAR     66  63  90 W5        29.78R
MAHNOMEN       FAIR      68  67  96 W10       29.78R
$$
MNZ006-009>011-018-025>026-240900-
   North Central Minnesota

CITY           SKY/WX    TMP DP  RH WIND       PRES   REMARKS
BAUDETTE       PTCLDY    69  67  93 SW7       29.70S
FLAG ISLAND    CLEAR     68  66  94 W12       29.66S
INTL FALLS     CLOUDY    69  65  86 SW8       29.71R
WASKISH        PTCLDY    72  70  94 W10       29.72S
BIG FORK       CLOUDY    70  66  88 S5        29.74S
LONGVILLE      CLOUDY    66  66 100 CALM      29.77S
GRAND RAPIDS   CLOUDY    68  66  93 SW5       29.77S
CRANE LAKE     CLOUDY    66  63  88 S6        29.74S
ORR            CLOUDY    66  63  88 CALM      29.72S
COOK           RAIN      66  64  94 S3        29.75F
WALKER         FAIR      66  64  94 SW5       29.76S
$$
MNZ012-019>021-037-240900-
   Northeast Minnesota

CITY           SKY/WX    TMP DP  RH WIND       PRES   REMARKS
DULUTH         CLOUDY    66  66 100 S20       29.75F
ELY            TSTM      64  63  94 W8        29.78R
HIBBING        LGT RAIN  64  64 100 CALM      29.76S
EVELETH        CLOUDY    65  64  97 CALM      29.77F
DULUTH HARBOR  CLOUDY    63  61  94 S10G31    29.73F
TWO HARBORS    LGT RAIN  64  61  88 E10       29.70F
SILVER BAY     LGT RAIN  64  61  88 CALM      29.75F
GRAND MARAIS     N/A     62  58  86 CALM      29.77S
G MARAIS ARPRT CLOUDY    63  57  82 CALM      29.82S
$$
MNZ029>031-032-039>041-046>048-054>057-064-240900-
   West Central Minnesota

CITY           SKY/WX    TMP DP  RH WIND       PRES   REMARKS
FERGUS FALLS   CLEAR     70  70 100 W8        29.82S
WHEATON        CLEAR     70  70 100 W8        29.84S
MORRIS         CLEAR     70  68  94 NW8       29.81S
ALEXANDRIA     CLEAR     71  68  90 W8        29.82R
ELBOW LAKE     FAIR      68  68  99 NW9       29.82R
WADENA         CLEAR     68  68 100 W6        29.79R
GLENWOOD       CLOUDY    70  68  94 W6        29.83R
APPLETON       CLEAR     72  66  83 W6        29.82R
BENSON         CLOUDY    68  64  88 NW3       29.82R
ORTONVILLE     CLEAR     72  66  83 W10       29.84R
MADISON        CLEAR     72  68  88 W6        29.85R
WILLMAR        FAIR      70  66  88 W6        29.83R
$$
MNZ033>034-036-042>043-049>051-058-059-240900-
   Central Minnesota

CITY           SKY/WX    TMP DP  RH WIND       PRES   REMARKS
ST CLOUD       CLOUDY    72  72 100 W3        29.77R
SAUK CENTRE    FAIR      68  66  93 W3        29.80R
PAYNESVILLE    CLEAR     66  67 100 W6        29.81R
AITKIN         CLOUDY    64  61  88 CALM      29.75S
PINE RIVER     PTCLDY    66  66 100 CALM      29.81S
BRAINERD       CLOUDY    66  66 100 SW7       29.77S
STAPLES        CLEAR     68  66  94 W5        29.78S
LONG PRAIRIE   FAIR      70  68  94 SW7       29.81R
LITTLE FALLS   MOCLDY    70  68  94 CALM      29.79R FOG
LITCHFIELD     CLOUDY    70  66  88 NW9       29.80R
BUFFALO        CLOUDY    73  63  71 W9        29.78R
MAPLE LAKE     CLOUDY    75  69  82 NW10G18   29.77R
HUTCHINSON     PTCLDY    69  69  98 SE5       29.77F
$$
MNZ037-044-045-052-053-240900-
   East Central Minnesota

CITY           SKY/WX    TMP DP  RH WIND       PRES   REMARKS
PRINCETON      CLOUDY    73  72  94 N7        29.78R
MORA           TSTM      66  64  94 S5        29.79F
CAMBRIDGE      CLOUDY    73  66  78 NE6       29.77R
RUSH CITY      CLOUDY    68  65  92 N6        29.81R THUNDER
MOOSE LAKE     CLOUDY    64  63  94 NW3       29.74R
HINCKLEY       RAIN      66  66 100 SE6       29.77F
CLOQUET        CLOUDY    64  63  94 E5        29.74F FOG
MCGREGOR       CLOUDY    64  63  94 W3        29.76S
$$
MNZ071>073-080-081-089-090-097-098-240900-
   Southwest Minnesota

CITY           SKY/WX    TMP DP  RH WIND       PRES   REMARKS
MONTEVIDEO     PTCLDY    72  70  94 N7        29.84R
GRANITE FALLS  PTCLDY    74  72  92 W6        29.84R
CANBY          CLEAR     71  66  85 NW7       29.87S
MARSHALL       PTCLDY    73  69  87 NW12      29.85R
REDWOOD FALLS  CLEAR     76  70  82 NW14      29.80R
OLIVIA         CLEAR     73  70  88 NW10G17   29.80R
PIPESTONE      CLEAR     73  68  83 NW6       29.90R
WINDOM         CLEAR     75  70  83 NW13G18   29.84R
WORTHINGTON    PTCLDY    76  71  85 NW13      29.88R
JACKSON        PTCLDY    79  70  73 NW15G23   29.84R
TRACY          PTCLDY    75  71  87 NW12G17   29.86R
SLAYTON        CLEAR     73  68  82 NW10G16   29.89R
$$
MNZ065>067-074>077-082>085-091>093-240900-
   South Central Minnesota

CITY           SKY/WX    TMP DP  RH WIND       PRES   REMARKS
MANKATO        CLOUDY    75  72  88 W5        29.78R
NEW ULM        PTCLDY    75  75 100 W3        29.78R
ST JAMES       PTCLDY    73  72  94 W12       29.80S
FAIRMONT       CLOUDY    79  52  38 W12       29.80R
GLENCOE        CLOUDY    73  70  91 CALM      29.77F
FARIBAULT      CLOUDY    75  73  94 S6        29.79S FOG
OWATONNA       CLOUDY    75  73  94 S6        29.79S FOG
WASECA         MOCLDY    73  73 100 S6        29.80S
ALBERT LEA     CLOUDY    75  73  94 CALM      29.81S FOG
$$
MNZ078>079-086>088-094>096-240900-
   Southeast Minnesota

CITY           SKY/WX    TMP DP  RH WIND       PRES   REMARKS
ROCHESTER      FOG       73  73 100 S10       29.81F VSB 1/2
RED WING       CLOUDY    75  72  88 CALM      29.77S
STANTON        CLOUDY    75  73  94 SW3       29.77S
DODGE CENTER   CLOUDY    73  72  94 SW8       29.81S
WINONA         CLOUDY    73  72  94 CALM      29.79F
AUSTIN         CLOUDY    73  72  94 S6        29.81S FOG
PRESTON        PTCLDY    73  71  94 S8        29.82F FOG
$$
ABBREVIATIONS USED IN REMARKS
   TC - TEMPERATURES IN CELSIUS
  WCI - WIND CHILL INDEX
   HX - HEAT INDEX
  VSB - VISIBILITY
$$



USA.gov is the U.S. government's official web portal to all federal, state and local government web resources and services.